EW7770 Weather Reports


time (UTC)temp
F
wind
direction
speed
knots
gust
knots
rain 1hr
in
rain 24hr
in
rain mn
in
humidity
%
barometer
mb
20260505153356 63 183 7.0 12.2 0.00 0.02 0.00 57 1009.1
20260505151440 63 208 5.2 7.8 0.00 0.02 0.00 56 1009.2
20260505150540 64 206 5.2 9.6 0.00 0.02 0.00 55 1009.3
20260505140541 63 183 4.3 7.0 0.00 0.02 0.00 57 1009.1
20260505124740 59 207 4.3 6.1 0.00 0.02 0.00 58 1009.8
20260505123740 58 228 1.7 2.6 0.00 0.02 0.00 57 1009.7
20260505122740 57 214 2.6 3.5 0.00 0.02 0.00 57 1009.6
20260505120740 55 231 2.6 4.3 0.00 0.02 0.00 56 1009.6
20260505115838 54 203 1.7 3.5 0.00 0.02 0.00 56 1009.8
20260505114840 53 206 1.7 3.5 0.00 0.02 0.00 54 1009.7
20260505113838 52 167 1.7 3.5 0.00 0.02 0.00 53 1009.7
20260505111840 50 202 1.7 4.3 0.00 0.02 0.00 51 1009.4
20260505110840 49 180 1.7 5.2 0.00 0.02 0.00 50 1009.6
20260505101041 44 226 1.7 3.5 0.00 0.02 0.00 44 1009.2
20260505100051 43 190 1.7 2.6 0.00 0.02 0.00 43 1009.2
20260505095040 44 189 0.9 1.7 0.00 0.02 0.00 45 1008.9
20260505094139 44 180 1.7 1.7 0.00 0.02 0.00 46 1009.0
20260505093239 44 157 1.7 1.7 0.00 0.02 0.00 47 1009.0
20260505092242 44 202 1.7 1.7 0.00 0.02 0.00 47 1008.9
20260505091340 45 202 0.9 1.7 0.00 0.02 0.00 48 1008.9
20260505090340 45 202 0.9 1.7 0.00 0.02 0.00 48 1008.9
20260505085339 45 202 0.9 1.7 0.00 0.02 0.00 48 1008.9
20260505084341 45 202 0.9 2.6 0.00 0.02 0.00 48 1008.8
20260505083338 45 202 0.9 1.7 0.00 0.02 0.00 47 1009.0
20260505082341 45 202 0.9 1.7 0.00 0.02 0.00 48 1008.9
20260505081340 45 202 0.9 1.7 0.00 0.02 0.00 48 1008.8
20260505075439 45 202 0.0 0.9 0.00 0.02 0.00 48 1008.7
20260505074440 46 211 0.9 1.7 0.00 0.02 0.00 49 1008.9
20260505073441 46 210 0.9 1.7 0.00 0.02 0.00 48 1008.9
20260505072440 46 232 0.9 3.5 0.00 0.02 0.00 48 1008.8
20260505072338 46 225 0.0 0.9 0.00 0.02 0.00 48 1008.9
20260505071340 45 202 0.9 1.7 0.00 0.02 0.00 48 1008.9
20260505070338 45 202 1.7 2.6 0.00 0.02 0.00 48 1008.8
20260505065341 46 233 0.9 2.6 0.00 0.02 0.00 47 1008.7
20260505064438 46 269 0.9 3.5 0.00 0.02 0.00 48 1008.7
20260505063440 45 280 0.0 0.9 0.00 0.02 0.00 47 1008.7
20260505062539 45 215 0.9 2.6 0.00 0.02 0.00 47 1008.6
20260505061539 45 202 0.0 0.9 0.00 0.02 0.00 46 1008.4
20260505055540 45 213 1.7 4.3 0.00 0.02 0.00 45 1008.5
20260505054540 45 241 0.9 2.6 0.00 0.02 0.00 46 1008.5
20260505052639 44 225 0.9 2.6 0.00 0.02 0.00 45 1008.4
20260505052539 44 225 0.9 2.6 0.00 0.02 0.00 46 1008.4
20260505051639 44 231 0.0 3.5 0.00 0.02 0.00 46 1008.2
20260505041739 45 202 0.9 1.7 0.00 0.02 0.00 48 1008.2
20260505041639 45 205 1.7 1.7 0.00 0.02 0.00 48 1008.1
20260505040640 44 220 1.7 2.6 0.00 0.02 0.00 48 1008.3
20260505035726 44 225 0.9 1.7 0.00 0.02 0.02 48 1008.4
20260505034624 44 232 0.9 3.5 0.00 0.02 0.02 46 1008.5
20260505033625 44 180 1.7 1.7 0.00 0.02 0.02 48 1008.2
20260505032723 44 180 0.0 0.9 0.00 0.02 0.02 48 1008.2
20260505031726 44 202 0.9 1.7 0.00 0.02 0.02 49 1008.1
20260505030824 45 202 0.9 0.9 0.00 0.02 0.02 48 1008.2
20260505025824 44 202 1.7 2.6 0.00 0.02 0.02 47 1008.2
20260505024924 44 202 0.9 1.7 0.00 0.02 0.02 47 1008.3
20260505023926 44 180 1.7 1.7 0.00 0.02 0.02 47 1008.5
20260505022924 45 157 0.9 1.7 0.00 0.02 0.02 48 1008.4
20260505021924 45 157 0.0 0.9 0.00 0.02 0.02 48 1008.5
20260505020925 45 157 0.0 0.0 0.00 0.02 0.02 49 1008.2
20260505015023 46 202 0.0 0.9 0.00 0.02 0.02 50 1008.3
20260505013223 47 224 0.9 1.7 0.00 0.02 0.02 52 1008.1
20260505012225 47 202 0.0 0.9 0.00 0.02 0.02 52 1008.2
20260505011224 48 225 0.0 0.9 0.00 0.02 0.02 52 1008.0
20260505010225 48 225 0.0 0.0 0.00 0.02 0.02 52 1008.0
20260505005224 48 225 0.0 0.9 0.00 0.02 0.02 53 1007.8
20260505003225 49 190 0.9 0.9 0.00 0.02 0.02 54 1007.6
20260505002225 50 202 0.9 1.7 0.00 0.02 0.02 56 1007.6
20260505000324 52 197 1.7 2.6 0.00 0.02 0.02 57 1007.4
20260504235423 53 160 0.9 1.7 0.00 0.02 0.02 59 1007.1
20260504234424 54 202 0.0 0.0 0.00 0.02 0.02 59 1006.9
20260504233425 55 202 0.0 0.0 0.00 0.02 0.02 60 1006.8
20260504232424 56 202 0.0 0.0 0.00 0.02 0.02 59 1006.7
20260504231424 57 270 0.0 0.0 0.00 0.02 0.02 59 1006.7
20260504230524 57 225 0.0 0.0 0.00 0.02 0.02 58 1006.6
20260504225623 58 202 0.0 0.0 0.00 0.02 0.02 57 1006.5
20260504223623 59 292 1.7 2.6 0.00 0.02 0.02 56 1006.2
20260504221625 58 315 0.9 3.5 0.00 0.02 0.02 56 1006.1
20260504220625 59 302 2.6 4.3 0.00 0.02 0.02 56 1006.2
20260504215624 60 318 1.7 3.5 0.00 0.02 0.02 56 1005.9
20260504215524 60 311 1.7 3.5 0.00 0.02 0.02 56 1005.9
20260504214524 60 315 2.6 4.3 0.00 0.02 0.02 56 1005.8
20260504214424 60 307 2.6 4.3 0.00 0.02 0.02 57 1005.8
20260504213427 59 315 0.9 1.7 0.00 0.02 0.02 57 1005.8
20260504212426 59 307 2.6 6.1 0.00 0.02 0.02 58 1005.9
20260504211425 59 315 0.9 1.7 0.00 0.02 0.02 58 1005.9
20260504205524 59 275 0.9 1.7 0.00 0.03 0.02 57 1005.7
20260504204523 59 358 0.0 0.9 0.00 0.03 0.02 58 1005.7
20260504203524 59 325 1.7 3.5 0.00 0.03 0.02 58 1005.9
20260504202526 59 287 1.7 3.5 0.00 0.03 0.02 57 1005.7
20260504201525 58 307 1.7 3.5 0.00 0.03 0.02 56 1005.8
20260504200525 56 332 1.7 2.6 0.00 0.03 0.02 55 1005.7
20260504195525 55 302 1.7 2.6 0.00 0.03 0.02 54 1005.7
20260504194525 55 276 0.9 1.7 0.00 0.03 0.02 52 1005.6
20260504193623 55 271 0.9 2.6 0.00 0.03 0.02 51 1005.8
20260504191625 52 273 0.0 1.7 0.02 0.03 0.02 45 1006.0
20260504190723 51 229 2.6 5.2 0.02 0.03 0.02 43 1005.8
20260504185725 50 233 1.7 4.3 0.02 0.04 0.02 44 1005.9
20260504184726 50 205 1.7 3.5 0.02 0.04 0.02 45 1006.1
20260504183725 50 240 1.7 3.5 0.02 0.05 0.02 48 1006.3
20260504182823 51 222 1.7 4.3 0.01 0.04 0.01 51 1006.6
20260504181923 52 252 1.7 5.2 0.01 0.04 0.00 55 1006.6
20260504175923 55 241 1.7 3.5 0.00 0.04 0.00 59 1006.4
20260504173926 55 220 3.5 7.0 0.00 0.05 0.00 60 1006.1
20260504172924 55 228 2.6 7.0 0.00 0.06 0.00 59 1006.1
20260504172022 55 250 1.7 3.5 0.00 0.07 0.00 58 1006.0
20260504171024 56 249 1.7 3.5 0.00 0.08 0.00 56 1005.8
20260504170123 56 207 2.6 6.1 0.00 0.09 0.00 56 1005.7